Tracking 29892 objects as of 21-Nov-2024
HD Live streaming from Space Station
objects crossing your sky now

IUS R/B(1)

Track IUS R/B(1) now!
10-day predictions


NORAD ID: 25868
Int'l Code: 1999-040C
Perigee: 281.9 km
Apogee: 10,812.0 km
Inclination: 28.5 °
Period: 215.8 minutes
Semi major axis: 11917 km
RCS: 10.3695 m2 (large)
Launch date: July 23, 1999
Source: United States (US)
Launch site: AIR FORCE EASTERN TEST RANGE (AFETR)

Note: This is a ROCKET BODY
Your satellite tracking list
Your tracking list is empty




NASA's NSSDC Master Catalog

Two Line Element Set (TLE):
1 25868U 99040C   24326.00926574  .00013862  00000-0  10528-2 0  9999
2 25868  28.4511 215.0807 4417761 232.7663  78.2623  6.67269103575043
Source of the keplerian elements: AFSPC